Flag for Belgium Weather past 2 weeks in Liège, Belgium

Now
54 °F

Partly sunny.


Feels Like: 50 °F
Forecast: 51 / 60 °F
Wind: 10 mph from South

Location: Bierset

Current Time: Oct 24, 2014 at 5:41:47 PM

Latest Report: Oct 24, 2014 at 4:50 PM


Visibility: N/A

Pressure: 30.07 "Hg

Humidity: 77%

Dew point: 46 °F

Location of LiègeLocation

Historic Weather in Liège — Graph

°F

Liège temperature yesterday

Maximum temperature yesterday: 55 °F (at 2:50 PM)
Minimum temperature yesterday: 45 °F (at 6:50 AM)
Average temperature yesterday: 50 °F

Past Weeks' High & Low Weather Summary

 TemperatureHumidityPressure
High73 °F (Oct 18, 3:20 PM)94% (Oct 10, 2:20 AM)30.24 "Hg (Oct 10, 2:20 AM)
Low41 °F (Oct 22, 5:50 AM)57% (Oct 18, 3:20 PM)29.56 "Hg (Oct 21, 2:50 PM)
Average56 °F82%29.92 "Hg
* Reported Oct 9 4:20 PM — Oct 24 4:20 PM, Liège, Weather by CustomWeather, © 2014

Note: Actual official high and low records may vary slightly from our data, if they occured in-between our weather recording intervals... More about our weather records

Advertising

Liège weather history for previous 24 hours

 ConditionsComfort  
Time TempWeatherWind HumidityBarometerVisibility
4:20 PM
Oct 24
54 °FPartly sunny.10 mph77%30.07 "HgN/A
3:50 PM54 °FPartly sunny.13 mph72%30.09 "HgN/A
3:20 PM54 °FPartly sunny.13 mph72%30.09 "HgN/A
2:50 PM54 °FPartly sunny.14 mph72%30.09 "HgN/A
2:20 PM54 °FPartly sunny.12 mph72%30.09 "HgN/A
1:50 PM52 °FPartly sunny.12 mph77%30.12 "HgN/A
1:20 PM52 °FPartly sunny.10 mph77%30.12 "HgN/A
12:50 PM52 °FPartly sunny.13 mph72%30.12 "HgN/A
12:20 PM52 °FScattered clouds.14 mph72%30.12 "HgN/A
11:50 AM52 °FPassing clouds.13 mph77%30.12 "HgN/A
11:20 AM52 °FPassing clouds.13 mph77%30.15 "HgN/A
10:50 AM50 °FSunny.13 mph82%30.15 "Hg10 mi
10:20 AM50 °FSunny.13 mph76%30.15 "Hg10 mi
9:50 AM50 °FSunny.12 mph76%30.15 "Hg10 mi
9:20 AM50 °FSunny.12 mph82%30.15 "Hg10 mi
8:50 AM50 °FClear.12 mph76%30.15 "Hg10 mi
8:20 AM50 °FPassing clouds.10 mph76%30.12 "HgN/A
7:50 AM48 °FPassing clouds.10 mph82%30.12 "HgN/A
7:20 AM48 °FPassing clouds.10 mph82%30.12 "HgN/A
6:50 AM48 °FPassing clouds.12 mph87%30.12 "HgN/A
6:20 AM50 °FPassing clouds.10 mph82%30.15 "HgN/A
5:50 AM50 °FPassing clouds.10 mph82%30.15 "HgN/A
5:20 AM50 °FPassing clouds.10 mph88%30.15 "HgN/A
4:50 AM50 °FPassing clouds.9 mph88%30.15 "HgN/A
4:20 AM50 °FPassing clouds.9 mph88%30.15 "HgN/A
3:50 AM50 °FPassing clouds.8 mph88%30.15 "HgN/A
3:20 AM50 °FPassing clouds.8 mph88%30.15 "HgN/A
2:50 AM50 °FPassing clouds.9 mph88%30.18 "HgN/A
2:20 AM50 °FPassing clouds.9 mph88%30.18 "HgN/A
1:50 AM50 °FPassing clouds.8 mph88%30.18 "HgN/A
1:20 AM50 °FPassing clouds.8 mph88%30.18 "HgN/A
12:50 AM50 °FPassing clouds.9 mph88%30.18 "HgN/A
12:20 AM50 °FPassing clouds.10 mph88%30.21 "HgN/A
11:50 PM
Oct 23
50 °FPassing clouds.8 mph88%30.21 "HgN/A
11:20 PM50 °FPassing clouds.9 mph88%30.21 "HgN/A
10:50 PM50 °FPassing clouds.10 mph88%30.21 "HgN/A
10:20 PM50 °FPassing clouds.10 mph88%30.21 "HgN/A
9:50 PM50 °FPassing clouds.10 mph88%30.21 "HgN/A
9:20 PM50 °FPassing clouds.9 mph88%30.21 "HgN/A
8:50 PM52 °FPassing clouds.10 mph82%30.21 "HgN/A
8:20 PM52 °FPassing clouds.10 mph82%30.21 "HgN/A
7:50 PM52 °FPassing clouds.9 mph82%30.18 "HgN/A
7:20 PM52 °FPartly sunny.9 mph82%30.18 "HgN/A
6:50 PM52 °FPartly sunny.10 mph88%30.18 "HgN/A
6:20 PM52 °FPartly sunny.10 mph88%30.18 "HgN/A
5:50 PM52 °FBroken clouds.9 mph88%30.21 "HgN/A
5:20 PM54 °FBroken clouds.10 mph82%30.21 "HgN/A
Weather by CustomWeather, © 2014

See weather overviewHow to use our weather pages